TimePDT,TemperatureF,Dew PointF,Humidity,Sea Level PressureIn,VisibilityMPH,Wind Direction,Wind SpeedMPH,Gust SpeedMPH,PrecipitationIn,Events,Conditions,WindDirDegrees,DateUTC
12:56 AM,42.1,28.0,58,30.14,10.0,SSE,4.6,-,N/A,,Clear,160,2013-04-26 07:56:00
1:56 AM,39.9,28.0,63,30.15,10.0,South,5.8,-,N/A,,Clear,170,2013-04-26 08:56:00
2:56 AM,39.9,28.9,65,30.16,10.0,South,8.1,-,N/A,,Clear,170,2013-04-26 09:56:00
3:56 AM,39.0,28.0,65,30.18,10.0,Calm,Calm,-,N/A,,Clear,0,2013-04-26 10:56:00
4:56 AM,33.1,26.1,75,30.20,10.0,Calm,Calm,-,N/A,,Clear,0,2013-04-26 11:56:00
5:56 AM,33.1,26.1,75,30.21,10.0,SE,4.6,-,N/A,,Clear,130,2013-04-26 12:56:00
6:56 AM,39.0,28.0,65,30.22,10.0,East,3.5,-,N/A,,Clear,100,2013-04-26 13:56:00
7:56 AM,50.0,30.9,48,30.22,10.0,SE,6.9,-,N/A,,Clear,140,2013-04-26 14:56:00
8:56 AM,55.9,30.9,39,30.22,10.0,Variable,3.5,-,N/A,,Clear,0,2013-04-26 15:56:00
9:56 AM,63.0,30.0,29,30.22,10.0,ESE,3.5,-,N/A,,Clear,110,2013-04-26 16:56:00
10:56 AM,66.9,30.0,25,30.22,10.0,WNW,3.5,-,N/A,,Clear,300,2013-04-26 17:56:00
11:56 AM,71.1,25.0,18,30.21,10.0,NW,4.6,-,N/A,,Clear,320,2013-04-26 18:56:00
12:56 PM,73.0,23.0,15,30.19,10.0,Variable,4.6,-,N/A,,Clear,0,2013-04-26 19:56:00
1:56 PM,75.0,24.1,15,30.18,10.0,Variable,3.5,-,N/A,,Clear,0,2013-04-26 20:56:00
2:56 PM,77.0,24.1,14,30.17,10.0,NNW,10.4,-,N/A,,Clear,330,2013-04-26 21:56:00
3:56 PM,77.0,16.0,10,30.16,10.0,NW,9.2,16.1,N/A,,Clear,320,2013-04-26 22:56:00
4:56 PM,77.0,23.0,13,30.17,10.0,NNW,16.1,19.6,N/A,,Clear,330,2013-04-26 23:56:00
5:56 PM,75.9,21.9,13,30.17,10.0,NW,11.5,19.6,N/A,,Clear,310,2013-04-27 00:56:00
6:56 PM,73.0,23.0,15,30.17,10.0,NW,13.8,21.9,N/A,,Clear,310,2013-04-27 01:56:00
7:56 PM,68.0,28.0,22,30.19,10.0,NW,4.6,-,N/A,,Clear,320,2013-04-27 02:56:00
8:56 PM,64.0,28.0,26,30.20,10.0,NW,5.8,-,N/A,,Clear,320,2013-04-27 03:56:00
9:56 PM,60.1,34.0,38,30.21,10.0,NNW,5.8,-,N/A,,Clear,330,2013-04-27 04:56:00
10:56 PM,51.1,34.0,52,30.24,10.0,Calm,Calm,-,N/A,,Clear,0,2013-04-27 05:56:00
11:56 PM,44.1,33.1,65,30.24,10.0,Calm,Calm,-,N/A,,Clear,0,2013-04-27 06:56:00